Regional Weather Roundup
Issued by NWS

Home | Current Version | Previous Version | Text Only | Print | Product List | Glossary On
Versions: 1 2 3 4 5 6 7 8 9 10 11 12 13 14 15 16 17 18 19 20 21 22 23 24 25 26 27 28 29 30 31 32 33 34 35 36 37 38 39 40 41 42 43 44 45 46 47 48 49 50
000
ASUS46 KSTO 200404
RWRCA

NORTHERN AND CENTRAL CA REGIONAL WEATHER ROUNDUP
NATIONAL WEATHER SERVICE SACRAMENTO CA
900 PM PDT SAT APR 19 2014

NOTE: FAIR INDICATES FEW OR NO CLOUDS BELOW 12,000 FEET WITH NO
SIGNIFICANT WEATHER AND/OR OBSTRUCTIONS TO VISIBILITY.

CAZ001-003-200500-
NORTHWEST AREA

CITY           SKY/WX    TMP DP  RH WIND       PRES   REMARKS
CRESCENT CITY  PTCLDY    48  47  96 CALM      30.25R
UKIAH          CLEAR     58  47  66 NE7       30.13R
$$

CAZ006-505>513-200500-
BAY AREA

CITY           SKY/WX    TMP DP  RH WIND       PRES   REMARKS
SANTA ROSA     CLEAR     56  51  84 S6        30.07R
SAN RAFAEL     N/A       60  MM  MM MISG
NAPA           CLEAR     55  53  93 SW12      30.08R
CONCORD        CLEAR     58  51  78 S9        30.09R
OAKLAND CITY   N/A       59  MM  MM MISG
OAKLAND        CLOUDY    56  51  84 W13       30.12R
SAN FRAN CITY  N/A       54  MM  95 MISG
SAN FRAN ARPT  MOCLDY    56  52  86 W20G29    30.13R
LIVERMORE      CLOUDY    56  52  86 SW7       30.11R
HAYWARD        CLOUDY    55  52  89 W9        30.12R
REDWOOD CITY   N/A       MM  MM  MM MISG
MOFFETT ARPT   CLEAR     58  51  78 N7        30.14R
SAN JOSE ARPT  PTCLDY    58  52  80 NW10      30.13R
$$
CAZ034-037-514>518-200500-
CENTRAL COAST

CITY           SKY/WX    TMP DP  RH WIND       PRES   REMARKS
WATSONVILLE    CLEAR     56  50  80 NE5       30.13R
SALINAS        PTCLDY    57  51  80 W8        30.12R
MONTEREY       CLOUDY    57  51  80 W8        30.14R
SAN LUIS OBISP CLEAR     53  50  89 NW9       30.06R
SANTA MARIA    PTCLDY    53  49  86 CALM      30.07R
$$
CAZ015-016-200500-
NORTHERN SACRAMENTO VALLEY

CITY           SKY/WX    TMP DP  RH WIND       PRES   REMARKS
REDDING        MOCLDY    67  39  35 SW3       30.04R
RED BLUFF      PTCLDY    68  33  27 N7        30.06R
OROVILLE       PTCLDY    68  41  37 E6        30.05R
$$
CAZ016>018-200500-
SOUTHERN SACRAMENTO VALLEY

CITY           SKY/WX    TMP DP  RH WIND       PRES   REMARKS
AUBURN         CLEAR     63  48  59 SE3       30.08R
BEALE AFB      PTCLDY    63  49  59 SE8       30.03R
LINCOLN        FAIR      61  50  67 SE8       30.04R
MARYSVILLE     CLEAR     65  52  62 SE9       30.03R
SAC INTL ARPT  PTCLDY    61  52  72 S9        30.03R
MATHER AIRPORT PTCLDY    57  54  88 S7        30.05R
DOWNTOWN SAC   N/A       61  MM  MM MISG
SAC EXEC ARPT  CLEAR     58  53  84 S5        30.05R
VACAVILLE      CLEAR     62  51  67 SW5       30.04R
TRAVIS AFB     CLEAR     57  57  99 SW23G30   30.03R
$$
CAZ019>021-200500-
SAN JOAQUIN VALLEY

CITY           SKY/WX    TMP DP  RH WIND       PRES   REMARKS
STOCKTON       CLEAR     59  51  75 W7        30.07R
MODESTO        CLEAR     64  45  49 NW10      30.05R
MERCED         CLEAR     67  45  45 NW9       30.03R
LEMOORE        CLEAR    N/A N/A N/A NW15      30.02R
FRESNO         CLEAR     73  35  25 NW13      30.02R
HANFORD        CLEAR     71  35  26 NW10      30.01R
PORTERVILLE    CLEAR     68  43  40 NW8       30.01R
BAKERSFIELD    CLEAR     74  44  34 N8        29.99R
$$
CAZ011-012-071-200500-
NORTHERN MOUNTAINS

CITY           SKY/WX    TMP DP  RH WIND       PRES   REMARKS
YREKA          CLEAR     49  38  65 N13       30.18R
MOUNT SHASTA   PTCLDY    53  31  42 MISG      30.15R
ALTURAS        MOCLDY    51  34  52 NW10      30.15R
$$
CAZ011-012-071-200500-
SIERRA NEVADA MTNS

CITY           SKY/WX    TMP DP  RH WIND       PRES   REMARKS
BLUE CANYON    PTCLDY    50  18  28 CALM      30.19R
TRUCKEE        PTCLDY    39  16  38 S7        30.18R WCI  34
TAHOE VLY ARPT MOCLDY    46  23  40 CALM      30.19R
MAMMOTH LAKES  FAIR      48  32  53 W5        30.19R
$$




USA.gov is the U.S. government's official web portal to all federal, state and local government web resources and services.